Location: Ladrillo (historical)
(32.8195°N, 117.2231°W)
Time: 23:03:01
(UTC+00:00)

Altair - Pass Details

Date: 28 February 2021
Orbit: 1501 x 1683 km, 47.2° (Epoch: 16 April)

Event Time Altitude Azimuth Distance (km) Brightness Sun altitude
Exits shadow 10:59:08 21° 156° (SSE) 3,152 9.1 -41.9°
Drops below altitude 10° 11:01:49 10° 151° (SSE) 3,928 9.7 -41.4°
Sets 11:05:04 0° 147° (SSE) 4,920 10.3 -40.7°
